SCP
0 0 0 0 0 0 0 0 0 0 1 1 1 2 2 1 1 1 1 1 0 0 0 0 1 1 0 0 0 0 0 0 0 0 0 0 0 0 0 0 0 0 0 0
0 0 0 0 0 0 0 0 0 0 1 1 1 2 2 2 1 1 1 0 0 0 0 0 0 0 0 0 0 0 0 0 0 0 0 0 0 0 0 0 0 0 0 0
0 0 0 0 0 0 0 0 0 0 1 1 1 2 2 2 1 1 1 0 0 0 0 0 0 0 0 0 0 0 0 0 0 0 0 0 0 0 0 0 0 0 0 0
0 0 0 0 0 0 0 0 0 0 1 1 1 2 2 2 1 1 1 0 0 0 0 0 0 0 0 0 0 0 0 0 0 0 0 0 0 0 0 0 0 0 0 0
0 0 0 0 0 0 0 0 1 1 0 1 1 2 1 1 1 1 0 0 0 0 0 0 0 0 0 0 0 0 0 0 0 0 0 0 0 0 0 0 0 0 0 0
0 0 0 0 0 0 0 0 1 0 0 1 2 2 1 1 1 1 0 0 0 0 0 0 0 0 0 0 0 0 0 0 0 0 0 0 0 0 0 0 0 0 0 0
0 0 0 0 0 0 0 0 0 0 0 1 1 1 1 1 1 0 0 0 0 0 0 0 0 0 0 0 0 0 0 0 0 0 0 0 0 0 0 0 0 0 0 0
0 0 0 0 0 0 0 0 0 0 0 0 0 1 1 1 1 0 0 0 0 0 0 0 0 0 0 0 0 0 0 0 0 0 0 0 0 0 0 0 0 0 0 0
0 0 0 0 0 0 0 0 0 0 0 0 0 0 1 1 1 0 0 0 0 0 0 0 0 0 0 0 0 0 0 0 0 0 0 0 0 0 0 0 0 0 0 0
0 0 0 0 0 0 0 0 0 0 0 1 1 1 1 1 1 0 0 0 0 0 0 0 0 0 0 0 0 0 0 0 0 0 0 0 0 0 0 0 0 0 0 0
0 0 0 0 0 0 0 0 0 0 0 1 1 1 1 1 1 0 0 0 0 0 0 0 0 0 0 0 0 0 0 0 0 0 0 0 0 0 0 0 0 0 0 0
0 0 0 0 0 0 1 1 0 0 0 0 1 1 1 1 1 0 0 0 0 0 0 0 0 0 0 0 0 0 0 0 0 0 0 0 0 0 0 0 0 0 0 0
0 0 0 0 0 1 1 1 0 0 0 0 0 1 1 1 0 0 0 0 0 0 0 0 0 0 0 0 0 0 0 0 0 0 0 0 0 0 0 0 0 0 0 0
0 0 0 0 0 1 1 0 0 0 0 0 0 0 1 1 0 0 0 0 0 0 0 0 0 0 0 0 0 0 0 0 0 0 0 0 0 0 0 0 0 0 0 0
0 0 0 0 1 1 1 0 0 0 0 0 0 0 0 1 0 0 0 0 0 0 0 0 0 0 0 0 0 0 0 0 0 0 0 0 0 0 0 0 0 0 0 0
1 1 1 1 1 1 1 0 0 0 0 0 0 0 0 0 0 0 0 0 0 0 0 0 0 0 0 0 0 0 0 0 0 0 0 0 0 0 0 0 0 0 0 0
1 1 1 1 1 1 1 0 0 0 0 0 0 0 0 0 0 0 0 0 0 0 0 0 0 0 0 0 0 0 0 0 0 0 0 0 0 0 0 0 0 0 0 0
1 1 1 1 1 1 0 0 0 0 0 0 0 0 0 0 0 0 0 0 0 0 0 0 0 0 0 0 0 0 0 0 0 0 0 0 0 0 0 0 0 0 0 0
1 1 1 1 0 0 0 0 0 0 0 0 0 0 0 0 0 0 0 0 0 0 0 0 0 0 0 0 0 0 0 0 0 0 0 0 0 0 0 0 0 0 0 0
0 0 1 0 0 0 0 0 0 0 0 0 0 0 0 0 0 0 0 0 0 0 0 0 0 0 0 0 0 0 0 0 0 0 0 0 0 0 0 0 0 0 0 0
0 0 0 0 0 0 0 0 0 0 0 0 0 0 0 0 0 0 0 0 0 0 0 0 0 0 0 0 0 0 0 0 0 0 0 0 0 0 0 0 0 0 0 0
0 0 0 0 0 0 0 0 0 0 0 0 0 0 0 0 0 0 0 0 0 0 0 0 0 0 0 0 0 0 0 0 0 0 0 0 0 0 0 0 0 0 0 0
0 0 0 0 0 0 0 0 0 0 0 0 0 0 0 0 0 0 0 0 0 0 0 0 0 0 0 0 0 0 0 0 0 0 0 0 0 0 0 0 0 0 0 0
0 0 0 0 0 0 0 0 0 0 0 0 0 0 0 0 0 0 0 0 0 0 0 0 0 0 0 0 0 0 0 0 0 0 0 0 0 0 0 0 0 0 0 0
0 0 0 0 0 0 0 0 0 0 0 0 0 0 0 0 0 0 0 0 0 0 0 0 0 0 0 0 0 0 0 0 0 0 0 0 0 0 0 0 0 0 0 0
0 0 0 0 0 0 0 0 0 0 0 0 0 0 0 0 0 0 0 0 0 0 0 0 0 0 0 0 0 0 0 0 0 0 0 0 0 0 0 0 0 0 0 0
0 0 0 0 0 0 0 0 0 0 0 0 0 0 0 0 0 0 0 0 0 0 0 0 0 0 0 0 0 0 0 0 0 0 0 0 0 0 0 0 0 0 0 0
Wind_Speed
3 2 1 0 2 2 2 4 5 4 5 7 7 9 8 8 8 9 7 7 7 6 5 5 5 4 4 3 3 3 3 3 2 1 2 2 2 2 3 3 4 3 4 4
2 1 1 2 3 3 2 3 5 4 2 2 5 7 8 8 9 9 8 7 7 6 6 6 5 5 4 3 3 3 3 2 2 2 2 2 2 2 3 3 4 4 4 4
2 3 3 2 2 1 2 3 6 5 5 7 7 8 9 9 8 8 7 7 7 7 6 6 5 5 4 4 3 3 3 3 3 3 3 2 2 3 3 3 3 4 3 3
1 3 1 4 1 5 5 2 2 4 7 9 8 7 6 6 7 7 7 7 7 6 5 4 4 4 4 4 4 4 3 3 3 3 3 2 3 2 2 2 2 2 2 2
3 1 1 2 1 3 4 1 3 7 8 7 8 6 3 3 5 7 7 7 6 6 5 4 4 5 5 4 4 4 4 3 3 4 3 3 2 1 1 1 1 1 1 2
3 2 3 5 2 3 6 1 3 8 10 9 8 5 4 5 6 6 6 5 5 5 5 5 4 5 5 4 4 4 3 3 3 4 3 2 2 1 1 1 1 1 1 1
3 2 4 4 2 2 2 6 6 8 10 9 6 5 6 8 7 7 6 6 5 6 5 4 4 5 5 5 4 4 3 3 3 3 3 2 1 1 1 1 1 1 1 2
3 2 5 3 1 3 5 4 8 7 8 7 6 8 8 8 8 8 7 6 6 5 4 3 4 6 5 4 4 4 4 3 3 2 2 2 2 1 1 1 2 1 1 2
5 6 5 1 3 3 5 7 5 6 8 10 10 9 8 8 8 7 7 6 5 6 5 4 4 5 5 3 4 4 4 3 2 2 1 1 2 1 1 1 1 0 0 1
2 1 2 4 5 4 6 7 7 9 10 10 10 10 9 8 7 6 6 6 5 6 6 4 3 4 4 4 4 5 4 3 2 2 1 1 1 1 1 1 1 1 1 1
2 3 3 3 5 6 7 9 10 9 8 9 11 10 8 7 7 6 5 5 5 6 6 5 4 4 4 4 5 5 3 2 2 1 1 0 1 1 1 2 3 3 3 3
6 7 6 5 5 8 9 10 10 10 8 8 9 9 8 7 6 6 6 5 5 5 6 5 5 4 4 4 5 5 3 2 2 1 1 1 1 2 3 3 4 4 5 4
6 6 6 6 7 7 9 10 10 10 10 9 8 8 8 7 6 6 6 6 6 6 6 6 5 5 5 4 5 4 4 3 2 2 2 2 2 2 2 4 4 5 5 6
8 8 6 6 7 8 10 10 10 9 9 9 8 7 7 6 6 7 7 7 7 7 6 6 6 5 5 5 5 4 4 4 3 3 3 3 3 3 3 3 3 4 5 7
6 8 8 8 8 9 10 10 10 9 8 8 7 8 8 8 7 7 6 7 6 6 6 6 6 5 5 5 5 4 3 3 3 3 3 3 3 3 3 4 4 3 3 4
7 8 10 10 10 9 10 11 10 9 9 8 8 8 8 8 7 6 6 7 8 7 6 6 6 6 5 6 5 4 3 5 4 3 2 2 3 3 3 4 4 4 4 5
10 9 9 9 9 9 9 10 10 10 9 9 9 9 8 7 6 6 6 7 7 7 7 6 6 6 6 6 5 4 3 4 5 3 3 4 4 4 4 4 4 5 6 6
10 10 11 11 10 9 9 10 10 10 9 9 9 9 8 9 8 7 7 6 6 5 6 6 6 6 6 6 5 4 3 3 4 4 4 4 4 4 4 4 5 6 5 5
9 10 10 10 9 9 9 9 9 9 9 9 10 9 8 8 8 7 6 7 7 6 6 6 8 7 6 6 6 3 3 3 3 3 4 5 5 4 4 5 5 6 6 5
10 10 10 9 8 8 8 8 9 9 9 9 9 8 7 7 7 7 7 6 6 6 6 7 7 6 6 6 6 4 4 4 4 4 4 4 4 5 5 5 6 6 5 5
10 10 10 9 8 8 9 10 10 9 8 9 9 9 8 7 7 7 6 5 5 6 6 8 6 5 5 5 6 4 4 4 4 5 4 4 4 5 5 5 5 5 5 5
9 9 9 9 9 8 7 8 9 9 9 8 8 8 7 7 7 6 6 6 6 7 6 5 5 7 8 7 4 5 5 5 5 5 5 5 5 5 6 6 6 6 6 6
8 8 9 9 10 9 7 7 8 8 9 9 9 8 8 7 6 6 5 5 5 8 7 5 8 11 12 7 5 5 6 6 6 5 5 6 6 6 6 7 6 6 6 6
8 8 8 8 8 8 7 6 7 7 7 8 8 8 7 5 4 5 5 7 9 9 6 7 12 13 11 6 5 5 5 5 6 6 6 6 6 5 6 6 6 6 6 7
8 7 7 8 8 7 7 6 6 5 6 4 6 7 6 6 6 5 5 6 9 9 6 8 11 12 8 5 6 6 6 6 6 5 6 6 6 6 6 6 6 6 6 6
7 7 6 7 6 6 5 5 4 4 4 4 3 4 4 4 5 4 4 6 8 8 6 5 5 7 6 6 6 7 6 6 7 7 7 7 7 7 6 6 7 6 6 6
7 6 4 4 4 5 5 5 5 5 5 5 5 4 5 4 4 4 5 4 5 5 5 4 4 5 5 6 6 6 6 6 6 6 6 6 6 6 6 7 6 6 5 6
Wind_Direction
206 246 242 257 358 22 116 161 166 185 172 193 180 158 152 146 140 140 149 149 149 146 141 136 133 135 133 134 128 127 126 124 124 117 98 85 72 55 48 47 55 54 58 49
342 335 27 39 42 51 70 110 120 122 167 169 138 131 143 153 151 153 162 157 153 152 148 146 146 146 140 139 136 128 131 138 137 120 99 93 84 70 61 51 50 56 56 50
301 309 34 10 303 103 110 138 150 179 191 143 134 149 159 162 159 161 164 159 159 157 156 155 155 155 150 148 137 121 124 133 134 122 111 106 97 84 71 58 58 55 50 49
147 31 43 255 241 122 111 96 141 135 144 150 151 151 148 151 156 159 157 155 156 156 156 160 158 151 145 137 132 129 132 131 125 118 111 103 95 88 78 71 69 59 47 36
116 116 263 256 203 159 130 121 152 137 139 133 125 107 115 151 144 151 154 153 154 154 149 148 152 151 138 134 134 135 137 135 130 128 123 113 101 90 87 86 70 59 44 43
120 143 225 249 260 150 107 147 195 148 148 149 135 146 191 164 137 130 127 128 134 138 130 132 141 134 129 134 136 140 145 145 141 136 132 135 134 115 87 97 95 68 44 21
144 186 253 261 242 113 148 218 183 159 157 158 168 177 155 141 135 134 132 129 130 131 132 142 137 128 129 136 149 155 144 133 124 125 138 141 120 98 97 78 67 53 30 354
149 178 244 277 87 170 205 163 150 152 154 146 131 121 125 134 136 135 132 132 134 132 134 137 132 129 131 149 161 142 128 120 115 113 130 124 109 90 84 84 71 36 23 351
175 205 229 219 152 169 143 130 136 139 138 132 129 131 132 137 141 140 141 143 139 138 136 136 138 135 140 162 147 131 122 121 117 98 80 110 121 127 84 68 77 21 32 339
107 212 153 112 108 116 123 122 126 131 132 132 132 137 135 139 143 142 141 145 141 139 142 151 153 145 153 152 137 131 132 137 138 121 74 48 68 150 156 178 193 211 227 264
137 167 109 109 128 125 117 117 119 122 127 134 135 138 139 144 149 150 147 149 149 152 156 165 160 154 159 151 141 140 145 147 148 151 157 92 352 270 211 231 213 206 219 213
194 194 161 178 162 133 129 132 134 129 126 133 140 143 143 148 152 153 153 150 151 156 160 166 163 165 167 160 152 150 158 168 170 175 186 183 204 325 312 268 272 246 230 217
168 159 145 147 142 130 136 140 140 138 140 142 143 144 146 151 157 156 158 160 165 166 166 168 169 175 181 177 166 163 176 190 190 195 202 211 213 216 278 310 308 288 263 247
130 121 123 143 149 140 139 138 132 132 137 140 142 144 146 146 151 157 167 174 171 167 168 169 172 186 192 181 176 180 190 205 205 212 219 220 224 223 222 236 272 290 281 259
141 141 147 144 133 134 135 133 131 135 139 141 145 148 149 154 162 170 172 167 160 163 171 173 178 197 197 183 184 193 197 208 214 219 220 223 230 236 237 237 241 253 272 279
139 128 132 136 141 144 142 143 146 153 154 153 156 159 161 164 167 168 166 161 161 173 180 178 187 201 193 182 185 195 211 225 219 219 233 242 243 245 247 245 247 249 251 252
141 146 146 150 156 157 156 158 160 161 160 161 165 163 159 158 160 166 172 174 173 179 182 183 194 201 192 187 189 199 213 232 234 235 243 245 248 249 245 240 244 248 251 248
160 162 158 158 161 162 162 162 162 161 163 167 163 158 160 164 172 178 179 172 169 182 196 196 196 197 197 197 196 202 212 230 230 232 239 246 250 247 243 243 248 253 263 268
150 153 155 157 160 159 160 162 162 162 160 158 160 165 170 173 177 179 175 171 178 194 213 206 198 196 200 206 199 198 210 227 238 244 245 253 260 259 251 248 251 253 255 258
152 154 154 155 153 152 156 158 156 155 159 158 160 163 170 178 177 175 175 186 201 203 202 197 191 194 201 209 205 204 216 229 240 249 250 250 254 259 258 256 254 256 254 250
153 154 153 154 154 156 156 155 155 159 163 162 164 172 178 183 181 174 176 201 222 205 195 195 194 200 205 208 208 213 223 234 239 241 245 250 254 257 258 259 260 261 258 254
155 154 154 154 151 156 161 158 159 161 163 168 173 174 175 183 185 184 193 203 209 196 190 197 202 207 209 208 208 217 229 237 241 243 245 249 250 254 259 259 259 261 260 255
151 152 153 155 156 159 158 158 161 163 167 173 176 178 181 186 183 181 205 218 202 199 196 203 210 213 213 211 215 224 233 239 241 243 244 247 249 250 254 258 257 256 257 258
143 147 150 150 144 146 157 171 171 172 175 177 182 182 179 182 198 205 203 202 202 203 207 215 217 218 214 211 216 226 233 239 243 246 247 249 253 255 256 258 260 261 260 261
140 139 138 140 146 159 169 168 165 171 172 180 188 190 187 185 191 203 198 199 202 202 214 220 219 219 215 216 221 228 233 240 246 248 249 251 254 256 258 257 256 259 261 261
142 146 151 157 160 162 161 157 162 173 172 178 194 198 193 191 192 192 193 198 200 202 208 214 211 211 213 220 226 231 236 246 253 251 250 251 253 255 258 260 262 260 258 258
139 140 141 145 156 160 160 162 168 179 181 180 187 195 191 188 187 191 192 195 197 203 211 214 211 210 214 222 230 235 239 243 246 248 250 251 253 254 257 259 260 262 263 265